When you browse on this site, cookies collect data to enhance your experience and personalize the content and advertising you see.
Visit our Privacy Policy to learn more. By continuing to use the site, you agree to this use of cookies and data.
  • In Italy
  • List of Countries
  • For 7 days
  • Water Temperature
  • Satellite Maps
  • Weather Map
  • Weather Widgets
  • user-avatar
    Login

    Hourly Weather Tirana

    Today, 11 December, Tuesday

    Time Temperature Precipitation Wind Pressure Humidity
    00:00 +5°C° 0 mm 4 mps 752 mmHg 73%
    01:00 +4°C° 0 mm 3 mps 751 mmHg 74%
    02:00 +4°C° 0 mm 4 mps 751 mmHg 74%
    03:00 +4°C° 0 mm 4 mps 751 mmHg 74%
    04:00 +4°C° 0 mm 4 mps 752 mmHg 73%
    05:00 +4°C° 0 mm 4 mps 752 mmHg 73%
    06:00 +4°C° 0 mm 4 mps 752 mmHg 72%
    07:00 +4°C° 0 mm 4 mps 752 mmHg 71%
    08:00 +5°C° 0 mm 4 mps 752 mmHg 65%
    09:00 +6°C° 0 mm 4 mps 753 mmHg 59%
    10:00 +7°C° 0 mm 4 mps 753 mmHg 53%
    11:00 +8°C° 0 mm 4 mps 753 mmHg 49%
    12:00 +8°C° 0 mm 4 mps 753 mmHg 46%
    13:00 +8°C° 0 mm 4 mps 753 mmHg 43%
    14:00 +8°C° 0 mm 4 mps 753 mmHg 47%
    15:00 +7°C° 0 mm 4 mps 753 mmHg 51%
    16:00 +6°C° 0 mm 4 mps 754 mmHg 54%
    17:00 +5°C° 0 mm 4 mps 754 mmHg 56%
    18:00 +4°C° 0 mm 4 mps 754 mmHg 57%
    19:00 +4°C° 0 mm 4 mps 755 mmHg 59%
    20:00 +3°C° 0 mm 4 mps 755 mmHg 59%
    21:00 +3°C° 0 mm 3 mps 755 mmHg 60%
    22:00 +3°C° 0 mm 3 mps 756 mmHg 60%
    23:00 +2°C° 0 mm 3 mps 756 mmHg 60%

    Tomorrow, 12 December, Wednesday

    Time Temperature Precipitation Wind Pressure Humidity
    00:00 +2°C° 0 mm 3 mps 756 mmHg 60%
    01:00 +2°C° 0 mm 3 mps 756 mmHg 60%
    02:00 +2°C° 0 mm 3 mps 756 mmHg 59%
    03:00 +3°C° 0 mm 2 mps 756 mmHg 59%
    04:00 +3°C° 0 mm 2 mps 756 mmHg 58%
    05:00 +3°C° 0 mm 2 mps 757 mmHg 58%
    06:00 +3°C° 0 mm 2 mps 757 mmHg 57%
    07:00 +3°C° 0 mm 2 mps 757 mmHg 57%
    08:00 +4°C° 0 mm 2 mps 757 mmHg 50%
    09:00 +6°C° 0 mm 2 mps 757 mmHg 44%
    10:00 +7°C° 0 mm 2 mps 758 mmHg 37%
    11:00 +8°C° 0 mm 2 mps 757 mmHg 34%
    12:00 +8°C° 0 mm 2 mps 757 mmHg 32%
    13:00 +10°C° 0 mm 1 mps 757 mmHg 29%
    14:00 +9°C° 0 mm 1 mps 757 mmHg 33%
    15:00 +7°C° 0 mm 1 mps 757 mmHg 37%
    16:00 +6°C° 0 mm 1 mps 757 mmHg 41%
    17:00 +5°C° 0 mm 2 mps 757 mmHg 41%
    18:00 +4°C° 0 mm 2 mps 757 mmHg 41%
    19:00 +4°C° 0 mm 2 mps 758 mmHg 41%
    20:00 +3°C° 0 mm 3 mps 758 mmHg 40%
    21:00 +2°C° 0 mm 3 mps 758 mmHg 40%
    22:00 +2°C° 0 mm 3 mps 758 mmHg 39%
    23:00 +2°C° 0 mm 3 mps 758 mmHg 39%

    Day after tomorrow, 13 December, Thursday

    Time Temperature Precipitation Wind Pressure Humidity
    00:00 +1°C° 0 mm 4 mps 758 mmHg 39%
    01:00 +1°C° 0 mm 4 mps 758 mmHg 39%
    02:00 +1°C° 0 mm 4 mps 757 mmHg 39%
    03:00 +1°C° 0 mm 4 mps 757 mmHg 39%
    04:00 +1°C° 0 mm 4 mps 757 mmHg 39%
    05:00 +1°C° 0 mm 4 mps 757 mmHg 39%
    06:00 +1°C° 0 mm 4 mps 756 mmHg 39%
    07:00 +1°C° 0 mm 4 mps 756 mmHg 39%
    08:00 +4°C° 0 mm 4 mps 756 mmHg 37%
    09:00 +6°C° 0 mm 4 mps 756 mmHg 35%
    10:00 +7°C° 0 mm 4 mps 756 mmHg 34%
    11:00 +8°C° 0 mm 3 mps 755 mmHg 35%
    12:00 +9°C° 0 mm 3 mps 755 mmHg 36%
    13:00 +9°C° 0 mm 3 mps 754 mmHg 37%
    14:00 +8°C° 0 mm 3 mps 754 mmHg 41%
    15:00 +8°C° 0 mm 3 mps 754 mmHg 45%
    16:00 +7°C° 0 mm 3 mps 754 mmHg 49%
    17:00 +5°C° 0 mm 4 mps 754 mmHg 52%
    18:00 +5°C° 0 mm 4 mps 754 mmHg 55%
    19:00 +3°C° 0 mm 5 mps 754 mmHg 58%
    20:00 +3°C° 0 mm 5 mps 754 mmHg 60%
    21:00 +3°C° 0 mm 5 mps 754 mmHg 61%
    22:00 +3°C° 0 mm 5 mps 754 mmHg 63%
    23:00 +3°C° 0 mm 5 mps 754 mmHg 64%

    14 December, Friday

    Time Temperature Precipitation Wind Pressure Humidity
    00:00 +3°C° 0 mm 5 mps 754 mmHg 65%
    01:00 +3°C° 0 mm 5 mps 754 mmHg 66%
    02:00 +3°C° 0.2 mm 5 mps 754 mmHg 68%
    03:00 +5°C° 0.2 mm 5 mps 753 mmHg 69%
    04:00 +5°C° 0.2 mm 5 mps 753 mmHg 71%
    05:00 +5°C° 0.6 mm 5 mps 753 mmHg 73%
    06:00 +5°C° 0.6 mm 5 mps 753 mmHg 76%
    07:00 +6°C° 0.6 mm 5 mps 753 mmHg 78%
    08:00 +7°C° 0.3 mm 5 mps 753 mmHg 77%
    09:00 +7°C° 0.3 mm 5 mps 753 mmHg 76%
    10:00 +8°C° 0.3 mm 5 mps 753 mmHg 75%
    11:00 +9°C° 0.1 mm 5 mps 753 mmHg 73%
    12:00 +10°C° 0.1 mm 6 mps 752 mmHg 72%
    13:00 +11°C° 0.1 mm 6 mps 752 mmHg 70%
    14:00 +10°C° 0.2 mm 6 mps 752 mmHg 72%
    15:00 +10°C° 0.2 mm 6 mps 752 mmHg 74%
    16:00 +9°C° 0.2 mm 5 mps 752 mmHg 76%
    17:00 +9°C° 0.2 mm 6 mps 752 mmHg 77%
    18:00 +8°C° 0.2 mm 6 mps 752 mmHg 77%
    19:00 +8°C° 0.2 mm 6 mps 752 mmHg 78%
    20:00 +8°C° 0.1 mm 6 mps 752 mmHg 78%
    21:00 +8°C° 0.1 mm 5 mps 752 mmHg 78%
    22:00 +8°C° 0.1 mm 5 mps 752 mmHg 78%
    23:00 +8°C° 0.1 mm 5 mps 752 mmHg 78%

    15 December, Saturday

    Time Temperature Precipitation Wind Pressure Humidity
    00:00 +8°C° 0.1 mm 5 mps 752 mmHg 79%
    01:00 +8°C° 0.1 mm 5 mps 752 mmHg 79%
    02:00 +8°C° 0.1 mm 5 mps 752 mmHg 79%
    03:00 +8°C° 0.1 mm 5 mps 751 mmHg 79%
    04:00 +8°C° 0.1 mm 4 mps 751 mmHg 79%
    05:00 +8°C° 0.2 mm 4 mps 751 mmHg 79%
    06:00 +8°C° 0.2 mm 4 mps 751 mmHg 79%
    07:00 +8°C° 0.2 mm 4 mps 751 mmHg 79%
    08:00 +10°C° 0.3 mm 4 mps 751 mmHg 77%
    09:00 +11°C° 0.3 mm 3 mps 751 mmHg 75%
    10:00 +11°C° 0.3 mm 3 mps 751 mmHg 74%
    11:00 +12°C° 0 mm 3 mps 751 mmHg 71%
    12:00 +13°C° 0 mm 3 mps 751 mmHg 69%
    13:00 +14°C° 0 mm 3 mps 750 mmHg 66%
    14:00 +13°C° 0 mm 3 mps 750 mmHg 69%
    15:00 +12°C° 0 mm 3 mps 750 mmHg 72%
    16:00 +11°C° 0 mm 3 mps 750 mmHg 76%
    17:00 +11°C° 0.1 mm 3 mps 751 mmHg 76%
    18:00 +10°C° 0.1 mm 3 mps 751 mmHg 77%
    19:00 +10°C° 0.1 mm 3 mps 751 mmHg 78%
    20:00 +10°C° 0.1 mm 3 mps 751 mmHg 79%
    21:00 +10°C° 0.1 mm 3 mps 752 mmHg 79%
    22:00 +9°C° 0.1 mm 2 mps 752 mmHg 79%
    23:00 +9°C° 0.1 mm 2 mps 752 mmHg 79%

    16 December, Sunday

    Time Temperature Precipitation Wind Pressure Humidity
    00:00 +9°C° 0.1 mm 3 mps 752 mmHg 79%
    01:00 +9°C° 0.1 mm 3 mps 752 mmHg 79%
    02:00 +9°C° 0 mm 3 mps 752 mmHg 79%
    03:00 +9°C° 0 mm 3 mps 752 mmHg 78%
    04:00 +9°C° 0 mm 3 mps 752 mmHg 78%
    05:00 +9°C° 0 mm 3 mps 753 mmHg 78%
    06:00 +9°C° 0 mm 3 mps 753 mmHg 78%
    07:00 +9°C° 0 mm 3 mps 754 mmHg 78%
    08:00 +10°C° 0 mm 3 mps 754 mmHg 74%
    09:00 +11°C° 0 mm 4 mps 754 mmHg 71%
    10:00 +12°C° 0 mm 4 mps 755 mmHg 67%
    11:00 +13°C° 0 mm 4 mps 755 mmHg 64%
    12:00 +14°C° 0 mm 5 mps 755 mmHg 62%
    13:00 +14°C° 0 mm 5 mps 755 mmHg 59%
    14:00 +13°C° 0 mm 5 mps 755 mmHg 62%
    15:00 +12°C° 0 mm 5 mps 756 mmHg 66%
    16:00 +12°C° 0 mm 5 mps 756 mmHg 69%
    17:00 +10°C° 0 mm 5 mps 757 mmHg 71%
    18:00 +9°C° 0 mm 5 mps 757 mmHg 72%
    19:00 +8°C° 0 mm 6 mps 758 mmHg 74%
    20:00 +8°C° 0 mm 5 mps 758 mmHg 74%
    21:00 +7°C° 0 mm 5 mps 759 mmHg 74%
    22:00 +7°C° 0 mm 5 mps 759 mmHg 75%
    23:00 +7°C° 0 mm 4 mps 759 mmHg 75%
    Show more